#timestamp,LO_Frequency,Hit 
1503381615.8,286046995.0,P
1503381635.6,286047001.1,N
1503381655.5,286047001.2,N
1503381675.3,286047001.2,N
1503381695.1,286046998.8,N
1503381715.9,286046997.1,N
1503381735.7,286046997.8,N
1503381755.5,286046997.4,N
1503381775.3,286046995.0,N
1503381795.2,286047000.8,N
1503381815.0,286046998.7,N
1503381815.9,286046998.7,N
1503381835.7,286047000.6,N
1503381855.6,286047000.8,N
1503381875.4,286047001.0,N
1503381895.2,286046998.4,N
1503381915.1,286046998.7,N
1503381916.0,286046998.7,N
1503381935.8,286046999.0,N
1503381955.6,286047002.6,N
1503381975.5,286047003.6,N
1503381995.3,286047004.3,N
1503382015.1,286047002.7,N
1503382035.8,286047000.9,N
1503382055.7,286047002.8,N
1503382075.5,286047004.2,N
1503382095.3,286047005.8,N
1503382115.2,286047002.9,N
1503382135.0,286047003.5,N
1503382135.9,286047003.5,N
1503382155.7,286047001.4,N
1503382175.6,286047000.1,N
1503382195.4,286046998.1,N
1503382215.2,286047001.2,N
1503382235.1,286046999.1,N
1503382236.0,286046999.1,N
1503382255.8,286046998.4,N
1503382275.6,286046998.4,N
1503382295.5,286047000.7,N
1503382315.3,286047002.7,N
1503382335.1,286047000.5,N
1503382355.9,286047002.2,N
1503382375.7,286047000.6,N
1503382395.5,286047001.9,N
1503382415.3,286047002.1,N
1503382435.2,286046999.7,N
1503382455.0,286047000.8,N
1503382455.9,286047000.8,N
1503382475.7,286046999.7,N
1503382495.6,286046998.4,N
1503382515.4,286046999.3,N
1503382535.2,286046996.7,N
1503382555.1,286046998.6,N
1503382556.0,286046998.6,N
1503382575.8,286047000.9,N
1503382595.6,286047001.2,N
1503382615.5,286046998.4,N
1503382635.3,286047000.3,N
1503382655.8,286047000.6,N
1503382675.6,286047004.4,N
1503382695.4,286047004.3,N
1503382715.2,286047000.1,N
1503382735.1,286047002.1,N
1503382736.0,286047002.1,N
1503382755.8,286047001.0,N
1503382775.6,286047001.8,N
1503382795.5,286047000.5,N
1503382815.3,286047000.9,N
1503382835.1,286046999.1,N
1503382855.9,286047000.2,N
1503382875.7,286047001.6,N
1503382895.5,286047001.9,N
1503382915.4,286047002.1,N
1503382935.2,286046999.7,N
1503382955.0,286047000.0,N
1503382955.9,286047000.0,N
1503382975.8,286046998.4,N
1503382995.6,286046998.8,N
1503383015.4,286047000.4,N
1503383035.2,286047002.7,N
1503383055.1,286047000.4,N
1503383056.0,286047000.4,N
1503383075.8,286046998.1,N
1503383095.6,286046996.6,N
1503383115.5,286046999.0,N
1503383135.3,286046996.5,N
1503383155.1,286047000.8,N
1503383175.9,286047002.0,N
1503383195.7,286047001.8,N
1503383215.5,286047002.4,N
1503383235.4,286046999.7,N
1503383255.2,286047001.6,N
1503383275.0,286047000.0,N
1503383275.9,286047000.0,N
1503383295.8,286047001.9,N
1503383315.6,286047001.2,N
1503383335.4,286047000.3,N
1503383355.3,286047000.5,N
1503383375.1,286047001.0,N
1503383376.0,286047001.0,N
1503383395.8,286047000.4,N
1503383415.7,286047000.4,N
1503383435.5,286047000.6,N
1503383455.3,286046999.7,N
1503383475.2,286046998.2,N
1503383495.9,286047003.7,N
1503383515.7,286047004.3,N
1503383535.5,286047003.8,N
1503383555.4,286047002.3,N
1503383575.2,286047000.2,N
1503383595.0,286047002.6,N
1503383595.9,286047002.6,N
1503383615.8,286047000.0,N
1503383635.6,286046999.8,N
1503383655.4,286047002.0,N
1503383675.3,286047004.1,N
1503383695.1,286047004.1,N
1503383696.0,286047004.1,N
1503383715.8,286047004.1,N
1503383735.7,286047004.4,N
1503383755.5,286047000.0,N
1503383775.3,286047002.3,N
1503383795.2,286047001.9,N
1503383815.9,286047000.0,N
1503383835.7,286047000.0,N
1503383855.5,286046998.6,N
1503383875.4,286046998.1,N
1503383895.2,286046998.3,N
1503383915.0,286047000.3,N
1503383915.9,286047000.3,N
1503383935.8,286046998.2,N
1503383955.6,286046998.2,N
1503383975.4,286047000.1,N
1503383995.3,286046999.3,N
1503384015.1,286046999.1,N
1503384016.0,286046999.1,N
1503384035.8,286046999.5,N
1503384055.7,286046998.7,N
1503384075.5,286046999.4,N
1503384095.3,286046998.8,N
1503384115.2,286046998.9,N
1503384135.9,286046997.0,N
1503384155.7,286046996.7,N
1503384175.6,286046996.9,N
1503384195.4,286046995.1,N
1503384215.2,286046993.3,N
1503384235.0,286046993.3,N
1503384235.9,286046993.3,N
1503384255.8,286046996.0,N
1503384275.6,286046996.4,N
1503384295.4,286046996.3,N
1503384315.3,286046995.6,N
1503384335.1,286046996.2,N
1503384355.8,286046994.7,N
1503384375.7,286046991.9,P
1503384395.5,286046995.2,N
1503384415.3,286046995.5,N
1503384435.2,286046996.6,N
1503384455.9,286046997.8,N
1503384475.7,286046996.6,N
1503384495.6,286046999.0,N
1503384515.4,286046996.8,N
1503384535.2,286046997.2,N
1503384555.1,286046999.1,N
1503384556.0,286046999.1,N
1503384575.8,286046998.8,N
1503384595.6,286046997.6,N
1503384615.5,286046997.0,N
1503384635.3,286046998.9,N
1503384655.1,286046997.0,N
1503384675.8,286046999.3,N
1503384695.7,286046996.7,N
1503384715.5,286046996.9,N
1503384735.3,286046997.9,N
1503384755.2,286046995.0,P
1503384775.0,286047001.2,N
1503384775.9,286047001.2,N
1503384795.7,286047000.0,N
1503384815.6,286046999.8,N
1503384835.4,286047000.6,N
1503384855.2,286046998.9,N
1503384875.1,286046999.1,N
1503384876.0,286046999.1,N
1503384895.8,286046995.0,N
1503384915.6,286046995.2,N
1503384935.5,286046996.2,N
1503384955.3,286046995.2,N
1503384975.1,286046994.0,N
1503384995.9,286046992.2,P
1503385015.7,286046994.2,N
1503385035.5,286046993.5,N
1503385055.4,286046995.0,N
1503385075.2,286046995.1,N
1503385095.0,286046997.6,N
1503385095.9,286046997.6,N
1503385115.8,286046995.1,N
1503385135.6,286046996.2,N
1503385155.4,286046995.1,N
1503385175.2,286046995.3,N
1503385195.1,286046997.7,N
1503385196.0,286046997.7,N
